WB8FCY Weather Reports


time (UTC)temp
C
wind
direction
speed
KPH
gust
KPH
rain 1hr
cm
rain 24hr
cm
rain mn
cm
humidity
%
barometer
mb
20260906190316 22 119 8.0 16.1 0.00 0.00 0.00 100 1019.2
20260906184813 22 119 8.0 16.1 0.00 0.00 0.00 100 1019.5
20260906183358 22 110 11.3 17.7 0.00 0.00 0.00 7 1019.5
20260906181830 23 109 8.0 16.1 0.00 0.00 0.00 10 1019.7
20260906180350 23 127 6.4 12.9 0.00 0.00 0.00 8 1019.6
20260906174828 23 104 1.6 8.0 0.00 0.00 0.00 3 1019.7
20260906173328 23 109 8.0 11.3 0.00 0.00 0.00 7 1019.7
20260906171826 23 134 4.8 11.3 0.00 0.00 0.00 100 1019.7
20260906170323 23 100 6.4 9.7 0.00 0.00 0.00 100 1019.8
20260906164826 22 89 4.8 6.4 0.00 0.00 0.00 100 1019.9
20260906163344 22 91 4.8 8.0 0.00 0.00 0.00 100 1019.9
20260906161824 22 152 4.8 8.0 0.00 0.00 0.00 100 1020.0
20260906160319 22 134 4.8 12.9 0.00 0.00 0.00 100 1020.0
20260906154818 22 107 3.2 8.0 0.00 0.00 0.00 100 1020.0
20260906153319 21 162 3.2 11.3 0.00 0.00 0.00 100 1020.0
20260906151815 20 109 0.0 6.4 0.00 0.00 0.00 100 1020.0
20260906150316 18 150 3.2 9.7 0.00 0.00 0.00 100 1020.2
20260906144832 18 135 1.6 3.2 0.00 0.00 0.00 100 1020.1
20260906143335 16 238 1.6 4.8 0.00 0.00 0.00 100 1020.2
20260906141852 16 5 0.0 4.8 0.00 0.00 0.00 100 1020.3
20260906140328 16 57 0.0 4.8 0.00 0.00 0.00 100 1020.4
20260906134830 15 290 0.0 0.0 0.00 0.00 0.00 100 1020.5
20260906133329 15 290 0.0 0.0 0.00 0.00 0.00 100 1020.4
20260906131830 14 288 0.0 0.0 0.00 0.00 0.00 100 1020.5
20260906130328 13 61 0.0 0.0 0.00 0.00 0.00 100 1020.2
20260906124830 12 61 0.0 0.0 0.00 0.03 0.00 100 1020.1
20260906123325 11 64 0.0 0.0 0.00 0.03 0.00 100 1020.1
20260906121844 11 64 0.0 0.0 0.00 0.03 0.00 100 1020.1
20260906120323 11 64 0.0 0.0 0.00 0.03 0.00 100 1019.9
20260906114819 10 64 0.0 0.0 0.00 0.03 0.00 100 1019.8
20260906113321 10 64 0.0 0.0 0.00 0.03 0.00 100 1019.6
20260906111819 10 64 0.0 0.0 0.00 0.03 0.00 100 1019.7